P4MALC BGGH-BIKF

Flight info

Callsign P4MALC
Flight time 3h 39m
Altitude 25000
Route EVULO DCT KOGAG UT599 LODNO UT594 DEVNU DCT GISTU DCT GIRUG
Aircraft BT36/L-BDFGLORY/S

Departure

Time 2026-04-28 13:24
Airport Nuuk International Airport (BGGH)

Arrival

Time 2026-04-28 17:03
Airport Keflavik International Airport (BIKF)
Time Latitude Longitude Altitude Speed Heading
2026-04-28 13:04 64.19153 -51.67522 0 ft 0 kts 250°
2026-04-28 13:18 64.19146 -51.67544 276 ft 5 kts 209°
2026-04-28 13:18 64.19095 -51.67579 276 ft 11 kts 193°
2026-04-28 13:18 64.19004 -51.67619 276 ft 16 kts 200°
2026-04-28 13:18 64.18885 -51.67709 276 ft 20 kts 198°
2026-04-28 13:19 64.18742 -51.67815 276 ft 21 kts 197°
2026-04-28 13:19 64.18625 -51.67905 276 ft 7 kts 226°
2026-04-28 13:19 64.18631 -51.68010 276 ft 4 kts 287°
2026-04-28 13:19 64.18632 -51.68012 276 ft 0 kts 287°
2026-04-28 13:22 64.18632 -51.68015 276 ft 1 kts 288°
2026-04-28 13:22 64.18643 -51.68094 276 ft 10 kts 288°
2026-04-28 13:22 64.18679 -51.68240 276 ft 10 kts 17°
2026-04-28 13:23 64.18712 -51.68214 276 ft 0 kts 19°
2026-04-28 13:23 64.18720 -51.68208 276 ft 16 kts 18°
2026-04-28 13:23 64.19120 -51.67920 294 ft 95 kts 16°
2026-04-28 13:23 64.19853 -51.67439 602 ft 112 kts 15°
2026-04-28 13:24 64.20621 -51.67193 1117 ft 111 kts
2026-04-28 13:24 64.21312 -51.67861 1617 ft 111 kts 313°
2026-04-28 13:24 64.21602 -51.69456 2107 ft 110 kts 269°
2026-04-28 13:24 64.21342 -51.71052 2592 ft 111 kts 226°
2026-04-28 13:25 64.20659 -51.71829 3099 ft 111 kts 196°
2026-04-28 13:25 64.19909 -51.72285 3605 ft 112 kts 195°
2026-04-28 13:25 64.19148 -51.72713 4104 ft 113 kts 194°
2026-04-28 13:25 64.18385 -51.73134 4598 ft 113 kts 194°
2026-04-28 13:26 64.17617 -51.73562 5095 ft 113 kts 194°
2026-04-28 13:26 64.16857 -51.73985 5582 ft 114 kts 194°
2026-04-28 13:26 64.16086 -51.74416 6078 ft 114 kts 194°
2026-04-28 13:26 64.15316 -51.74846 6570 ft 113 kts 194°
2026-04-28 13:27 64.14554 -51.75272 7060 ft 112 kts 194°
2026-04-28 13:27 64.13807 -51.75690 7544 ft 110 kts 194°
2026-04-28 13:27 64.13038 -51.76005 7961 ft 116 kts 175°
2026-04-28 13:27 64.12299 -51.75223 8367 ft 121 kts 149°
2026-04-28 13:28 64.11555 -51.74249 8777 ft 125 kts 151°
2026-04-28 13:28 64.10795 -51.73231 9205 ft 127 kts 150°
2026-04-28 13:28 64.10035 -51.72205 9657 ft 127 kts 150°
2026-04-28 13:28 64.09272 -51.71177 10106 ft 127 kts 150°
2026-04-28 13:29 64.08506 -51.70149 10553 ft 128 kts 150°
2026-04-28 13:29 64.07739 -51.69118 10996 ft 128 kts 150°
2026-04-28 13:29 64.06969 -51.68083 11445 ft 128 kts 150°
2026-04-28 13:29 64.06195 -51.67047 11896 ft 129 kts 150°
2026-04-28 13:30 64.05424 -51.66014 12337 ft 129 kts 150°
2026-04-28 13:30 64.04660 -51.64981 12772 ft 129 kts 148°
2026-04-28 13:30 64.04121 -51.63369 13225 ft 130 kts 110°
2026-04-28 13:30 64.04073 -51.61333 13672 ft 130 kts 75°
2026-04-28 13:31 64.04570 -51.57360 14565 ft 129 kts 75°
2026-04-28 13:31 64.04817 -51.55386 14982 ft 131 kts 74°
2026-04-28 13:31 64.05072 -51.53337 15363 ft 136 kts 75°
2026-04-28 13:32 64.05336 -51.51223 15745 ft 141 kts 75°
2026-04-28 13:32 64.05608 -51.49047 16129 ft 144 kts 75°
2026-04-28 13:32 64.05886 -51.46818 16510 ft 148 kts 75°
2026-04-28 13:32 64.06169 -51.44560 16935 ft 147 kts 74°
2026-04-28 13:33 64.06448 -51.42323 17358 ft 146 kts 75°
2026-04-28 13:33 64.06727 -51.40091 17779 ft 146 kts 75°
2026-04-28 13:33 64.07000 -51.37889 18201 ft 145 kts 75°
2026-04-28 13:33 64.07274 -51.35682 18613 ft 144 kts 75°
2026-04-28 13:34 64.07546 -51.33487 19032 ft 143 kts 75°
2026-04-28 13:34 64.07815 -51.31313 19448 ft 142 kts 75°
2026-04-28 13:34 64.08083 -51.29133 19823 ft 143 kts 75°
2026-04-28 13:34 64.08353 -51.26931 20197 ft 144 kts 75°
2026-04-28 13:35 64.08625 -51.24724 20569 ft 145 kts 75°
2026-04-28 13:35 64.08898 -51.22508 20942 ft 144 kts 75°
2026-04-28 13:35 64.09169 -51.20291 21278 ft 146 kts 75°
2026-04-28 13:35 64.09444 -51.18040 21610 ft 148 kts 74°
2026-04-28 13:36 64.09911 -51.15948 21932 ft 148 kts 57°
2026-04-28 13:36 64.10451 -51.13944 22255 ft 148 kts 59°
2026-04-28 13:36 64.10982 -51.11938 22527 ft 151 kts 59°
2026-04-28 13:36 64.11529 -51.09875 22804 ft 153 kts 59°
2026-04-28 13:37 64.12082 -51.07789 23085 ft 154 kts 59°
2026-04-28 13:37 64.12644 -51.05673 23364 ft 155 kts 59°
2026-04-28 13:37 64.13206 -51.03553 23642 ft 157 kts 59°
2026-04-28 13:37 64.13773 -51.01410 23919 ft 157 kts 59°
2026-04-28 13:38 64.14341 -50.99263 24196 ft 158 kts 59°
2026-04-28 13:38 64.14910 -50.97104 24471 ft 158 kts 59°
2026-04-28 13:38 64.15482 -50.94942 24745 ft 159 kts 59°
2026-04-28 13:38 64.16053 -50.92775 24992 ft 161 kts 59°
2026-04-28 13:39 64.16651 -50.90491 25008 ft 176 kts 59°
2026-04-28 13:39 64.17307 -50.87986 25015 ft 190 kts 59°
2026-04-28 13:39 64.18007 -50.85323 25016 ft 199 kts 59°
2026-04-28 13:39 64.18740 -50.82541 25009 ft 207 kts 59°
2026-04-28 13:40 64.19491 -50.79680 25005 ft 212 kts 59°
2026-04-28 13:40 64.20256 -50.76759 25009 ft 215 kts 59°
2026-04-28 13:40 64.21032 -50.73791 25007 ft 217 kts 59°
2026-04-28 13:40 64.21813 -50.70800 25008 ft 219 kts 59°
2026-04-28 13:41 64.22600 -50.67784 25015 ft 221 kts 59°
2026-04-28 13:41 64.23390 -50.64748 25007 ft 222 kts 59°
2026-04-28 13:41 64.23915 -50.62729 25013 ft 222 kts 59°
2026-04-28 13:41 64.24975 -50.58649 25009 ft 222 kts 59°
2026-04-28 13:42 64.25761 -50.55619 25007 ft 223 kts 59°
2026-04-28 13:42 64.26551 -50.52567 25010 ft 222 kts 59°
2026-04-28 13:42 64.27343 -50.49504 25012 ft 222 kts 59°
2026-04-28 13:42 64.28133 -50.46448 25012 ft 222 kts 59°
2026-04-28 13:43 64.28655 -50.44421 25008 ft 222 kts 59°
2026-04-28 13:43 64.29445 -50.41354 25012 ft 222 kts 59°
2026-04-28 13:43 64.30234 -50.38291 25009 ft 222 kts 59°
2026-04-28 13:43 64.31018 -50.35240 25001 ft 222 kts 59°
2026-04-28 13:44 64.31803 -50.32179 25008 ft 222 kts 59°
2026-04-28 13:44 64.32586 -50.29123 25012 ft 222 kts 59°
2026-04-28 13:44 64.33371 -50.26057 25007 ft 222 kts 59°
2026-04-28 13:44 64.34156 -50.22985 25003 ft 222 kts 59°
2026-04-28 13:45 64.34936 -50.19928 25004 ft 222 kts 59°
2026-04-28 13:45 64.35720 -50.16854 25008 ft 222 kts 59°
2026-04-28 13:45 64.36498 -50.13794 25010 ft 222 kts 59°
2026-04-28 13:45 64.37278 -50.10724 25011 ft 222 kts 59°
2026-04-28 13:46 64.38060 -50.07642 25005 ft 222 kts 60°
2026-04-28 13:46 64.38695 -50.04407 25002 ft 221 kts 76°
2026-04-28 13:46 64.39001 -50.00923 25008 ft 221 kts 78°
2026-04-28 13:46 64.39320 -49.97456 25009 ft 221 kts 78°
2026-04-28 13:47 64.39641 -49.93970 25003 ft 221 kts 78°
2026-04-28 13:47 64.39955 -49.90490 25010 ft 221 kts 78°
2026-04-28 13:47 64.40268 -49.87016 25010 ft 221 kts 78°
2026-04-28 13:47 64.40575 -49.83598 25010 ft 221 kts 78°
2026-04-28 13:48 64.40888 -49.80113 25010 ft 221 kts 78°
2026-04-28 13:48 64.41199 -49.76637 25010 ft 221 kts 78°
2026-04-28 13:48 64.41509 -49.73158 25010 ft 221 kts 78°
2026-04-28 13:48 64.41818 -49.69683 25007 ft 221 kts 78°
2026-04-28 13:49 64.42126 -49.66207 25011 ft 221 kts 79°
2026-04-28 13:49 64.42436 -49.62712 25006 ft 221 kts 79°
2026-04-28 13:49 64.42743 -49.59226 25010 ft 221 kts 79°
2026-04-28 13:49 64.43050 -49.55739 25010 ft 221 kts 79°
2026-04-28 13:50 64.43355 -49.52259 25010 ft 221 kts 79°
2026-04-28 13:50 64.43659 -49.48771 25006 ft 221 kts 79°
2026-04-28 13:50 64.43959 -49.45333 25010 ft 221 kts 79°
2026-04-28 13:50 64.44261 -49.41851 25010 ft 221 kts 79°
2026-04-28 13:51 64.44562 -49.38376 25009 ft 221 kts 79°
2026-04-28 13:51 64.44863 -49.34891 25009 ft 221 kts 79°
2026-04-28 13:51 64.45164 -49.31399 25009 ft 221 kts 79°
2026-04-28 13:51 64.45464 -49.27905 25009 ft 221 kts 79°
2026-04-28 13:52 64.45762 -49.24421 25004 ft 221 kts 79°
2026-04-28 13:52 64.46059 -49.20945 25010 ft 221 kts 79°
2026-04-28 13:52 64.46356 -49.17451 25009 ft 221 kts 79°
2026-04-28 13:52 64.46652 -49.13952 25003 ft 221 kts 79°
2026-04-28 13:53 64.46949 -49.10454 25009 ft 221 kts 79°
2026-04-28 13:53 64.47243 -49.06963 25005 ft 221 kts 79°
2026-04-28 13:53 64.47535 -49.03486 25006 ft 221 kts 79°
2026-04-28 13:53 64.47828 -48.99994 25009 ft 221 kts 79°
2026-04-28 13:54 64.48120 -48.96493 25009 ft 221 kts 79°
2026-04-28 13:54 64.48411 -48.93000 25006 ft 221 kts 79°
2026-04-28 13:54 64.48701 -48.89506 25009 ft 221 kts 79°
2026-04-28 13:54 64.48987 -48.86048 25002 ft 221 kts 79°
2026-04-28 13:55 64.49276 -48.82552 25004 ft 221 kts 79°
2026-04-28 13:55 64.49564 -48.79047 25006 ft 221 kts 79°
2026-04-28 13:55 64.49851 -48.75541 25009 ft 221 kts 79°
2026-04-28 13:55 64.50138 -48.72033 25004 ft 221 kts 79°
2026-04-28 13:56 64.50423 -48.68533 25009 ft 221 kts 79°
2026-04-28 13:56 64.50708 -48.65031 25009 ft 221 kts 79°
2026-04-28 13:56 64.50988 -48.61575 25003 ft 221 kts 79°
2026-04-28 13:56 64.51271 -48.58070 25009 ft 221 kts 79°
2026-04-28 13:57 64.51553 -48.54564 25009 ft 221 kts 79°
2026-04-28 13:57 64.51834 -48.51060 25009 ft 221 kts 80°
2026-04-28 13:57 64.52115 -48.47555 25009 ft 221 kts 80°
2026-04-28 13:57 64.52394 -48.44047 25009 ft 221 kts 80°
2026-04-28 13:58 64.52673 -48.40539 25004 ft 221 kts 80°
2026-04-28 13:58 64.52951 -48.37028 25009 ft 221 kts 80°
2026-04-28 13:58 64.53228 -48.33517 25010 ft 221 kts 80°
2026-04-28 13:58 64.53506 -48.29993 25007 ft 221 kts 80°
2026-04-28 13:59 64.53782 -48.26476 25008 ft 221 kts 80°
2026-04-28 13:59 64.54057 -48.22957 25010 ft 221 kts 80°
2026-04-28 13:59 64.54331 -48.19439 25010 ft 221 kts 80°
2026-04-28 13:59 64.54605 -48.15921 25009 ft 221 kts 80°
2026-04-28 14:00 64.54877 -48.12399 25006 ft 221 kts 80°
2026-04-28 14:00 64.55149 -48.08878 25005 ft 221 kts 80°
2026-04-28 14:00 64.55420 -48.05358 25006 ft 221 kts 80°
2026-04-28 14:00 64.55690 -48.01829 25011 ft 221 kts 80°
2026-04-28 14:01 64.55956 -47.98351 25006 ft 221 kts 80°
2026-04-28 14:01 64.56224 -47.94826 25010 ft 221 kts 80°
2026-04-28 14:01 64.56492 -47.91301 25010 ft 221 kts 80°
2026-04-28 14:01 64.56759 -47.87776 25000 ft 221 kts 80°
2026-04-28 14:02 64.57024 -47.84259 25010 ft 221 kts 80°
2026-04-28 14:02 64.57289 -47.80734 25010 ft 221 kts 80°
2026-04-28 14:02 64.57553 -47.77209 25007 ft 221 kts 80°
2026-04-28 14:02 64.57817 -47.73682 25010 ft 221 kts 81°
2026-04-28 14:03 64.58079 -47.70146 25010 ft 221 kts 81°
2026-04-28 14:03 64.58341 -47.66610 25010 ft 221 kts 81°
2026-04-28 14:03 64.58603 -47.63072 25003 ft 221 kts 81°
2026-04-28 14:03 64.58863 -47.59549 25007 ft 221 kts 81°
2026-04-28 14:04 64.59122 -47.56019 25007 ft 221 kts 81°
2026-04-28 14:04 64.59380 -47.52478 25007 ft 221 kts 81°
2026-04-28 14:04 64.59638 -47.48945 25010 ft 221 kts 81°
2026-04-28 14:04 64.59894 -47.45419 25010 ft 221 kts 81°
2026-04-28 14:05 64.60147 -47.41923 25010 ft 221 kts 81°
2026-04-28 14:05 64.60402 -47.38387 25006 ft 221 kts 81°
2026-04-28 14:05 64.60657 -47.34849 25011 ft 221 kts 81°
2026-04-28 14:05 64.60912 -47.31286 27018 ft 226 kts 77°
2026-04-28 14:06 64.61175 -47.27626 26883 ft 232 kts 77°
2026-04-28 14:06 64.61440 -47.23882 26753 ft 236 kts 78°
2026-04-28 14:06 64.61708 -47.20083 26630 ft 239 kts 78°
2026-04-28 14:06 64.61978 -47.16246 26504 ft 241 kts 78°
2026-04-28 14:07 64.62250 -47.12383 26375 ft 242 kts 78°
2026-04-28 14:07 64.62522 -47.08501 26248 ft 243 kts 78°
2026-04-28 14:07 64.62794 -47.04605 26124 ft 244 kts 78°
2026-04-28 14:07 64.63065 -47.00699 25997 ft 244 kts 78°
2026-04-28 14:08 64.63393 -46.96816 25869 ft 244 kts 76°
2026-04-28 14:08 64.63704 -46.92920 25742 ft 245 kts 77°
2026-04-28 14:08 64.64010 -46.89013 25616 ft 245 kts 77°
2026-04-28 14:08 64.64326 -46.85107 25491 ft 245 kts 77°
2026-04-28 14:09 64.64646 -46.81190 25363 ft 245 kts 77°
2026-04-28 14:09 64.64962 -46.77277 25238 ft 246 kts 77°
2026-04-28 14:09 64.65277 -46.73350 25116 ft 246 kts 77°
2026-04-28 14:09 64.65587 -46.69482 25012 ft 245 kts 77°
2026-04-28 14:10 64.65896 -46.65602 25006 ft 241 kts 77°
2026-04-28 14:10 64.66200 -46.61787 25003 ft 238 kts 77°
2026-04-28 14:10 64.66501 -46.57989 25000 ft 236 kts 77°
2026-04-28 14:10 64.66797 -46.54238 24996 ft 235 kts 77°
2026-04-28 14:11 64.67092 -46.50492 24993 ft 234 kts 77°
2026-04-28 14:11 64.67385 -46.46756 24986 ft 234 kts 77°
2026-04-28 14:11 64.67676 -46.43026 24990 ft 234 kts 77°
2026-04-28 14:11 64.67967 -46.39287 24988 ft 233 kts 77°
2026-04-28 14:12 64.68257 -46.35559 24988 ft 233 kts 77°
2026-04-28 14:12 64.68545 -46.31831 24983 ft 233 kts 77°
2026-04-28 14:12 64.68833 -46.28102 24983 ft 233 kts 77°
2026-04-28 14:12 64.69120 -46.24363 24985 ft 233 kts 77°
2026-04-28 14:13 64.69406 -46.20623 24983 ft 233 kts 77°
2026-04-28 14:13 64.69687 -46.16940 24983 ft 233 kts 77°
2026-04-28 14:13 64.69971 -46.13205 24980 ft 233 kts 77°
2026-04-28 14:13 64.70254 -46.09466 24979 ft 234 kts 77°
2026-04-28 14:14 64.70538 -46.05710 24979 ft 234 kts 77°
2026-04-28 14:14 64.70819 -46.01967 24979 ft 234 kts 77°
2026-04-28 14:14 64.71100 -45.98221 24977 ft 234 kts 77°
2026-04-28 14:14 64.71380 -45.94472 24974 ft 234 kts 77°
2026-04-28 14:15 64.71659 -45.90722 24978 ft 234 kts 77°
2026-04-28 14:15 64.71938 -45.86967 24972 ft 234 kts 77°
2026-04-28 14:15 64.72216 -45.83201 24971 ft 235 kts 76°
2026-04-28 14:15 64.72492 -45.79449 24972 ft 235 kts 76°
2026-04-28 14:16 64.72768 -45.75683 24972 ft 235 kts 76°
2026-04-28 14:16 64.73044 -45.71913 24967 ft 235 kts 76°
2026-04-28 14:16 64.73318 -45.68149 24967 ft 234 kts 76°
2026-04-28 14:16 64.73591 -45.64382 24963 ft 234 kts 76°
2026-04-28 14:17 64.73862 -45.60635 24963 ft 234 kts 76°
2026-04-28 14:17 64.74129 -45.56923 24960 ft 234 kts 76°
2026-04-28 14:17 64.74397 -45.53178 24961 ft 234 kts 76°
2026-04-28 14:17 64.74666 -45.49419 24956 ft 234 kts 76°
2026-04-28 14:18 64.74933 -45.45675 24959 ft 234 kts 76°
2026-04-28 14:18 64.75199 -45.41914 24954 ft 234 kts 76°
2026-04-28 14:18 64.75464 -45.38170 24955 ft 233 kts 76°
2026-04-28 14:18 64.75728 -45.34417 24952 ft 234 kts 76°
2026-04-28 14:19 64.75992 -45.30654 24949 ft 234 kts 76°
2026-04-28 14:19 64.76255 -45.26899 24947 ft 234 kts 76°
2026-04-28 14:19 64.76516 -45.23143 24945 ft 233 kts 76°
2026-04-28 14:19 64.76777 -45.19388 24945 ft 233 kts 76°
2026-04-28 14:20 64.77035 -45.15639 24939 ft 233 kts 76°
2026-04-28 14:20 64.77295 -45.11872 24937 ft 234 kts 76°
2026-04-28 14:20 64.77552 -45.08111 24937 ft 234 kts 75°
2026-04-28 14:20 64.77810 -45.04340 24931 ft 234 kts 75°
2026-04-28 14:21 64.78066 -45.00573 24932 ft 234 kts 76°
2026-04-28 14:21 64.78318 -44.96850 24929 ft 234 kts 75°
2026-04-28 14:21 64.78573 -44.93077 24926 ft 234 kts 75°
2026-04-28 14:21 64.78826 -44.89302 24924 ft 234 kts 75°
2026-04-28 14:22 64.79079 -44.85529 24920 ft 234 kts 75°
2026-04-28 14:22 64.79331 -44.81755 24918 ft 234 kts 75°
2026-04-28 14:22 64.79582 -44.77982 24917 ft 234 kts 75°
2026-04-28 14:22 64.79831 -44.74207 24915 ft 234 kts 75°
2026-04-28 14:23 64.80080 -44.70430 24909 ft 234 kts 75°
2026-04-28 14:23 64.80328 -44.66642 24907 ft 234 kts 74°
2026-04-28 14:23 64.80576 -44.62861 24902 ft 234 kts 75°
2026-04-28 14:23 64.80822 -44.59077 24897 ft 235 kts 75°
2026-04-28 14:24 64.81068 -44.55294 24899 ft 234 kts 75°
2026-04-28 14:24 64.81313 -44.51504 24894 ft 234 kts 74°
2026-04-28 14:24 64.81556 -44.47719 24891 ft 235 kts 74°
2026-04-28 14:24 64.81799 -44.43931 24890 ft 235 kts 75°
2026-04-28 14:25 64.82037 -44.40194 24887 ft 234 kts 74°
2026-04-28 14:25 64.82277 -44.36406 24886 ft 235 kts 74°
2026-04-28 14:25 64.82517 -44.32609 24885 ft 235 kts 74°
2026-04-28 14:25 64.82757 -44.28807 24879 ft 236 kts 74°
2026-04-28 14:26 64.82996 -44.24988 24875 ft 236 kts 75°
2026-04-28 14:26 64.83233 -44.21174 24874 ft 236 kts 74°
2026-04-28 14:26 64.83470 -44.17370 24874 ft 236 kts 75°
2026-04-28 14:26 64.83708 -44.13545 24871 ft 236 kts 74°
2026-04-28 14:27 64.83944 -44.09732 24870 ft 236 kts 73°
2026-04-28 14:27 64.84177 -44.05901 24863 ft 236 kts 73°
2026-04-28 14:27 64.84412 -44.02080 24865 ft 236 kts 75°
2026-04-28 14:27 64.84645 -43.98257 24864 ft 236 kts 74°
2026-04-28 14:28 64.84876 -43.94424 24863 ft 236 kts 74°
2026-04-28 14:28 64.85106 -43.90600 24863 ft 236 kts 73°
2026-04-28 14:28 64.85335 -43.86776 24860 ft 236 kts 74°
2026-04-28 14:28 64.85560 -43.82997 24855 ft 237 kts 73°
2026-04-28 14:29 64.85789 -43.79162 24856 ft 237 kts 73°
2026-04-28 14:29 64.86018 -43.75325 24851 ft 237 kts 72°
2026-04-28 14:29 64.86243 -43.71482 24851 ft 237 kts 73°
2026-04-28 14:29 64.86472 -43.67640 24850 ft 238 kts 73°
2026-04-28 14:30 64.86695 -43.63787 24846 ft 238 kts 75°
2026-04-28 14:30 64.86915 -43.59922 24844 ft 238 kts 73°
2026-04-28 14:30 64.87143 -43.56058 24844 ft 238 kts 74°
2026-04-28 14:30 64.87290 -43.53503 24841 ft 239 kts 74°
2026-04-28 14:31 64.87586 -43.48316 24839 ft 239 kts 73°
2026-04-28 14:31 64.87735 -43.45743 24841 ft 239 kts 74°
2026-04-28 14:31 64.87955 -43.41853 24837 ft 240 kts 73°
2026-04-28 14:31 64.88249 -43.36692 24830 ft 240 kts 73°
2026-04-28 14:32 64.88468 -43.32794 24832 ft 240 kts 75°
2026-04-28 14:32 64.88613 -43.30156 24829 ft 240 kts 73°
2026-04-28 14:32 64.88902 -43.24988 24823 ft 241 kts 73°
2026-04-28 14:32 64.89047 -43.22390 24824 ft 241 kts 74°
2026-04-28 14:33 64.89264 -43.18485 24819 ft 241 kts 73°
2026-04-28 14:33 64.89477 -43.14578 24824 ft 241 kts 72°
2026-04-28 14:33 64.89692 -43.10678 24822 ft 241 kts 73°
2026-04-28 14:33 64.89904 -43.06763 24816 ft 241 kts 76°
2026-04-28 14:34 64.90327 -42.98934 24808 ft 241 kts 71°
2026-04-28 14:34 64.90538 -42.95019 24806 ft 242 kts 71°
2026-04-28 14:34 64.90746 -42.91093 24808 ft 242 kts 73°
2026-04-28 14:35 64.90956 -42.87153 24801 ft 242 kts 74°
2026-04-28 14:35 64.91164 -42.83221 24799 ft 242 kts 75°
2026-04-28 14:35 64.91370 -42.79280 24798 ft 242 kts 72°
2026-04-28 14:35 64.91575 -42.75343 24796 ft 242 kts 72°
2026-04-28 14:36 64.91782 -42.71402 24794 ft 243 kts 75°
2026-04-28 14:36 64.91989 -42.67442 24791 ft 243 kts 71°
2026-04-28 14:36 64.92193 -42.63486 24787 ft 243 kts 75°
2026-04-28 14:36 64.92391 -42.59507 24789 ft 244 kts 73°
2026-04-28 14:37 64.92591 -42.55604 24782 ft 244 kts 72°
2026-04-28 14:37 64.92793 -42.51636 24777 ft 244 kts 73°
2026-04-28 14:37 64.92996 -42.47664 24777 ft 244 kts 75°
2026-04-28 14:37 64.93194 -42.43645 24773 ft 244 kts 72°
2026-04-28 14:38 64.93389 -42.39709 24768 ft 244 kts 75°
2026-04-28 14:38 64.93589 -42.35739 24761 ft 244 kts 73°
2026-04-28 14:38 64.93782 -42.31768 24758 ft 244 kts 72°
2026-04-28 14:38 64.93977 -42.27803 24751 ft 243 kts 76°
2026-04-28 14:39 64.94173 -42.23837 24752 ft 243 kts 71°
2026-04-28 14:39 64.94366 -42.19872 24750 ft 244 kts 73°
2026-04-28 14:39 64.94555 -42.15884 24747 ft 244 kts 73°
2026-04-28 14:39 64.94748 -42.11919 24738 ft 244 kts 72°
2026-04-28 14:40 64.94934 -42.07940 24738 ft 244 kts 72°
2026-04-28 14:40 64.95058 -42.05299 24732 ft 244 kts 73°
2026-04-28 14:40 64.95315 -41.99976 24725 ft 244 kts 74°
2026-04-28 14:40 64.95501 -41.95984 24719 ft 245 kts 74°
2026-04-28 14:41 64.95681 -41.92032 24710 ft 245 kts 72°
2026-04-28 14:41 64.95867 -41.88030 24703 ft 245 kts 73°
2026-04-28 14:41 64.96054 -41.84044 24698 ft 245 kts 73°
2026-04-28 14:41 64.96234 -41.80041 24688 ft 245 kts 74°
2026-04-28 14:42 64.96416 -41.76050 24679 ft 244 kts 71°
2026-04-28 14:42 64.96596 -41.72063 24673 ft 244 kts 73°
2026-04-28 14:42 64.96773 -41.68060 24664 ft 244 kts 71°
2026-04-28 14:42 64.96955 -41.64075 24653 ft 244 kts 73°
2026-04-28 14:43 64.97132 -41.60089 24645 ft 244 kts 70°
2026-04-28 14:43 64.97306 -41.56113 24634 ft 244 kts 72°
2026-04-28 14:43 64.97479 -41.52129 24619 ft 244 kts 73°
2026-04-28 14:43 64.97653 -41.48148 24613 ft 244 kts 72°
2026-04-28 14:44 64.97821 -41.44161 24601 ft 244 kts 70°
2026-04-28 14:44 64.97994 -41.40184 24594 ft 243 kts 74°
2026-04-28 14:44 64.98168 -41.36212 24582 ft 242 kts 73°
2026-04-28 14:44 64.98337 -41.32247 24572 ft 243 kts 70°
2026-04-28 14:45 64.98502 -41.28328 24563 ft 243 kts 73°
2026-04-28 14:45 64.98665 -41.24352 24550 ft 243 kts 73°
2026-04-28 14:45 64.98830 -41.20382 24542 ft 243 kts 71°
2026-04-28 14:45 64.98998 -41.16407 24533 ft 243 kts 74°
2026-04-28 14:46 64.99161 -41.12426 24520 ft 243 kts 73°
2026-04-28 14:46 64.99322 -41.08448 24509 ft 243 kts 74°
2026-04-28 14:46 64.99484 -41.04465 24504 ft 243 kts 76°
2026-04-28 14:46 64.99647 -41.00484 24493 ft 243 kts 75°
2026-04-28 14:47 64.99806 -40.96504 24486 ft 243 kts 75°
2026-04-28 14:47 64.99959 -40.92567 24479 ft 243 kts 75°
2026-04-28 14:47 65.00116 -40.88594 24472 ft 243 kts 72°
2026-04-28 14:47 65.00274 -40.84617 24463 ft 243 kts 74°
2026-04-28 14:48 65.00430 -40.80630 24453 ft 244 kts 74°
2026-04-28 14:48 65.00583 -40.76650 24448 ft 243 kts 74°
2026-04-28 14:48 65.00736 -40.72674 24445 ft 243 kts 74°
2026-04-28 14:48 65.00887 -40.68705 24437 ft 242 kts 75°
2026-04-28 14:49 65.01037 -40.64740 24429 ft 242 kts 75°
2026-04-28 14:49 65.01185 -40.60782 24425 ft 242 kts 76°
2026-04-28 14:49 65.01333 -40.56818 24419 ft 242 kts 76°
2026-04-28 14:49 65.01481 -40.52849 24412 ft 242 kts 76°
2026-04-28 14:50 65.01627 -40.48876 24408 ft 242 kts 76°
2026-04-28 14:50 65.01772 -40.44900 24398 ft 242 kts 76°
2026-04-28 14:50 65.01915 -40.40931 24398 ft 242 kts 77°
2026-04-28 14:50 65.02059 -40.36970 24391 ft 241 kts 77°
2026-04-28 14:51 65.02200 -40.33021 24390 ft 241 kts 77°
2026-04-28 14:51 65.02336 -40.29132 24380 ft 240 kts 77°
2026-04-28 14:51 65.02475 -40.25198 24378 ft 240 kts 77°
2026-04-28 14:51 65.02613 -40.21272 24376 ft 239 kts 78°
2026-04-28 14:52 65.02749 -40.17348 24369 ft 239 kts 78°
2026-04-28 14:52 65.02883 -40.13421 24370 ft 239 kts 78°
2026-04-28 14:52 65.03017 -40.09502 24363 ft 239 kts 78°
2026-04-28 14:52 65.03150 -40.05586 24360 ft 238 kts 78°
2026-04-28 14:53 65.03281 -40.01681 24359 ft 238 kts 78°
2026-04-28 14:53 65.03351 -39.97756 24351 ft 240 kts 83°
2026-04-28 14:53 65.03369 -39.93807 24350 ft 239 kts 83°
2026-04-28 14:53 65.03401 -39.89880 24349 ft 239 kts 83°
2026-04-28 14:54 65.03427 -39.85999 24344 ft 238 kts 83°
2026-04-28 14:54 65.03448 -39.82087 24346 ft 238 kts 83°
2026-04-28 14:54 65.03469 -39.78145 24338 ft 238 kts 84°
2026-04-28 14:54 65.03490 -39.74233 24336 ft 238 kts 84°
2026-04-28 14:55 65.03509 -39.70328 24337 ft 237 kts 84°
2026-04-28 14:55 65.03528 -39.66425 24335 ft 237 kts 84°
2026-04-28 14:55 65.03545 -39.62526 24334 ft 237 kts 84°
2026-04-28 14:55 65.03561 -39.58634 24334 ft 236 kts 84°
2026-04-28 14:56 65.03576 -39.54746 24333 ft 236 kts 85°
2026-04-28 14:56 65.03591 -39.50855 24331 ft 236 kts 85°
2026-04-28 14:56 65.03604 -39.47022 24329 ft 236 kts 85°
2026-04-28 14:56 65.03616 -39.43141 24328 ft 235 kts 85°
2026-04-28 14:57 65.03627 -39.39269 24327 ft 235 kts 85°
2026-04-28 14:57 65.03634 -39.36656 24328 ft 235 kts 85°
2026-04-28 14:57 65.03647 -39.31535 24324 ft 235 kts 85°
2026-04-28 14:57 65.03655 -39.27664 24327 ft 235 kts 86°
2026-04-28 14:58 65.03662 -39.23797 24326 ft 235 kts 86°
2026-04-28 14:58 65.03668 -39.19928 24323 ft 235 kts 86°
2026-04-28 14:58 65.03673 -39.16065 24325 ft 235 kts 86°
2026-04-28 14:58 65.03678 -39.12207 24324 ft 234 kts 86°
2026-04-28 14:59 65.03681 -39.08341 24322 ft 234 kts 86°
2026-04-28 14:59 65.03683 -39.04537 24321 ft 234 kts 86°
2026-04-28 14:59 65.03684 -39.00688 24321 ft 234 kts 87°
2026-04-28 14:59 65.03684 -38.96839 24320 ft 233 kts 87°
2026-04-28 15:00 65.03684 -38.92989 24319 ft 234 kts 87°
2026-04-28 15:00 65.03682 -38.89133 24318 ft 235 kts 87°
2026-04-28 15:00 65.03679 -38.85259 24318 ft 236 kts 88°
2026-04-28 15:00 65.03675 -38.81366 24311 ft 237 kts 88°
2026-04-28 15:01 65.03670 -38.77458 24311 ft 238 kts 88°
2026-04-28 15:01 65.03665 -38.73539 24310 ft 238 kts 88°
2026-04-28 15:01 65.03658 -38.69662 24304 ft 239 kts 88°
2026-04-28 15:01 65.03650 -38.65730 24302 ft 239 kts 88°
2026-04-28 15:02 65.03641 -38.61779 24305 ft 240 kts 88°
2026-04-28 15:02 65.03631 -38.57836 24306 ft 240 kts 88°
2026-04-28 15:02 65.03620 -38.53888 24301 ft 240 kts 88°
2026-04-28 15:02 65.03608 -38.49942 24303 ft 239 kts 88°
2026-04-28 15:03 65.03594 -38.46005 24298 ft 239 kts 88°
2026-04-28 15:03 65.03580 -38.42082 24296 ft 238 kts 89°
2026-04-28 15:03 65.03565 -38.38180 24294 ft 237 kts 89°
2026-04-28 15:03 65.03549 -38.34284 24297 ft 236 kts 89°
2026-04-28 15:04 65.03532 -38.30399 24297 ft 236 kts 89°
2026-04-28 15:04 65.03514 -38.26574 24293 ft 235 kts 89°
2026-04-28 15:04 65.03495 -38.22699 24292 ft 235 kts 89°
2026-04-28 15:04 65.03475 -38.18820 24293 ft 235 kts 89°
2026-04-28 15:05 65.03455 -38.14948 24291 ft 235 kts 90°
2026-04-28 15:05 65.03433 -38.11084 24291 ft 235 kts 90°
2026-04-28 15:05 65.03410 -38.07216 24291 ft 235 kts 90°
2026-04-28 15:05 65.03386 -38.03354 24288 ft 235 kts 90°
2026-04-28 15:06 65.03361 -37.99488 24289 ft 235 kts 90°
2026-04-28 15:06 65.03335 -37.95622 24289 ft 235 kts 90°
2026-04-28 15:06 65.03308 -37.91755 24286 ft 235 kts 91°
2026-04-28 15:06 65.03280 -37.87895 24286 ft 235 kts 91°
2026-04-28 15:07 65.03251 -37.84034 24286 ft 235 kts 91°
2026-04-28 15:07 65.03221 -37.80170 24283 ft 234 kts 91°
2026-04-28 15:07 65.03191 -37.76318 24286 ft 234 kts 91°
2026-04-28 15:07 65.03159 -37.72465 24285 ft 234 kts 91°
2026-04-28 15:08 65.03126 -37.68613 24282 ft 234 kts 92°
2026-04-28 15:08 65.03092 -37.64767 24283 ft 234 kts 92°
2026-04-28 15:08 65.03058 -37.60918 24283 ft 234 kts 92°
2026-04-28 15:08 65.03022 -37.57071 24284 ft 234 kts 92°
2026-04-28 15:09 65.02985 -37.53227 24285 ft 233 kts 92°
2026-04-28 15:09 65.02948 -37.49390 24283 ft 233 kts 92°
2026-04-28 15:09 65.02909 -37.45557 24282 ft 233 kts 93°
2026-04-28 15:09 65.02883 -37.43018 24281 ft 233 kts 93°
2026-04-28 15:10 65.02829 -37.37901 24281 ft 233 kts 93°
2026-04-28 15:10 65.02788 -37.34076 24283 ft 233 kts 93°
2026-04-28 15:10 65.02745 -37.30249 24280 ft 233 kts 94°
2026-04-28 15:10 65.02703 -37.26481 24281 ft 233 kts 94°
2026-04-28 15:11 65.02658 -37.22656 24282 ft 232 kts 94°
2026-04-28 15:11 65.02613 -37.18834 24277 ft 232 kts 94°
2026-04-28 15:11 65.02567 -37.15004 24279 ft 232 kts 94°
2026-04-28 15:11 65.02520 -37.11183 24275 ft 232 kts 94°
2026-04-28 15:12 65.02471 -37.07364 24277 ft 232 kts 94°
2026-04-28 15:12 65.02422 -37.03529 24274 ft 232 kts 95°
2026-04-28 15:12 65.02372 -36.99711 24271 ft 232 kts 95°
2026-04-28 15:12 65.02321 -36.95897 24272 ft 232 kts 95°
2026-04-28 15:13 65.02270 -36.92120 24270 ft 232 kts 95°
2026-04-28 15:13 65.02217 -36.88300 24270 ft 232 kts 95°
2026-04-28 15:13 65.02162 -36.84428 24269 ft 232 kts 95°
2026-04-28 15:13 65.02108 -36.80668 24270 ft 232 kts 96°
2026-04-28 15:14 65.02051 -36.76798 24267 ft 232 kts 96°
2026-04-28 15:14 65.01995 -36.73021 24266 ft 232 kts 96°
2026-04-28 15:14 65.01937 -36.69193 24266 ft 232 kts 96°
2026-04-28 15:14 65.01878 -36.65374 24266 ft 232 kts 96°
2026-04-28 15:15 65.01818 -36.61558 24265 ft 232 kts 97°
2026-04-28 15:15 65.01778 -36.59027 24266 ft 232 kts 97°
2026-04-28 15:15 65.01695 -36.53914 24266 ft 232 kts 97°
2026-04-28 15:15 65.01632 -36.50103 24265 ft 232 kts 97°
2026-04-28 15:16 65.01569 -36.46275 24268 ft 232 kts 97°
2026-04-28 15:16 65.01505 -36.42499 24267 ft 232 kts 97°
2026-04-28 15:16 65.01439 -36.38679 24266 ft 232 kts 98°
2026-04-28 15:16 65.01372 -36.34858 24268 ft 233 kts 98°
2026-04-28 15:17 65.01304 -36.31037 24268 ft 233 kts 98°
2026-04-28 15:17 65.01236 -36.27214 24263 ft 233 kts 98°
2026-04-28 15:17 65.01166 -36.23390 24265 ft 233 kts 98°
2026-04-28 15:17 65.01095 -36.19566 24265 ft 233 kts 98°
2026-04-28 15:18 65.01023 -36.15733 24264 ft 233 kts 99°
2026-04-28 15:18 65.00951 -36.11908 24267 ft 233 kts 99°
2026-04-28 15:18 65.00877 -36.08072 24266 ft 233 kts 99°
2026-04-28 15:18 65.00802 -36.04243 24266 ft 233 kts 99°
2026-04-28 15:19 65.00726 -36.00414 24267 ft 233 kts 99°
2026-04-28 15:19 65.00650 -35.96592 24269 ft 233 kts 100°
2026-04-28 15:19 65.00572 -35.92753 24266 ft 233 kts 100°
2026-04-28 15:19 65.00493 -35.88919 24265 ft 233 kts 100°
2026-04-28 15:20 65.00288 -35.85155 24268 ft 230 kts 108°
2026-04-28 15:20 65.00016 -35.81431 24266 ft 230 kts 108°
2026-04-28 15:20 64.99755 -35.77698 24268 ft 230 kts 107°
2026-04-28 15:20 64.99495 -35.73963 24266 ft 230 kts 108°
2026-04-28 15:21 64.99236 -35.70270 24272 ft 230 kts 108°
2026-04-28 15:21 64.98972 -35.66535 24269 ft 230 kts 108°
2026-04-28 15:21 64.98707 -35.62801 24270 ft 231 kts 108°
2026-04-28 15:21 64.98439 -35.59049 24269 ft 231 kts 108°
2026-04-28 15:22 64.98173 -35.55315 24268 ft 231 kts 108°
2026-04-28 15:22 64.97905 -35.51585 24268 ft 231 kts 109°
2026-04-28 15:22 64.97637 -35.47858 24268 ft 231 kts 109°
2026-04-28 15:22 64.97367 -35.44125 24271 ft 231 kts 109°
2026-04-28 15:23 64.97095 -35.40383 24270 ft 231 kts 109°
2026-04-28 15:23 64.96824 -35.36650 24268 ft 231 kts 109°
2026-04-28 15:23 64.96643 -35.34175 24268 ft 231 kts 109°
2026-04-28 15:23 64.96370 -35.30441 24271 ft 231 kts 109°
2026-04-28 15:24 64.96006 -35.25499 24269 ft 231 kts 110°
2026-04-28 15:24 64.95731 -35.21768 24271 ft 231 kts 110°
2026-04-28 15:24 64.95454 -35.18038 24278 ft 231 kts 110°
2026-04-28 15:24 64.95177 -35.14308 24275 ft 231 kts 110°
2026-04-28 15:25 64.94898 -35.10578 24277 ft 231 kts 110°
2026-04-28 15:25 64.94708 -35.08041 24273 ft 231 kts 110°
2026-04-28 15:25 64.94429 -35.04320 24278 ft 231 kts 110°
2026-04-28 15:25 64.94148 -35.00587 24277 ft 231 kts 111°
2026-04-28 15:26 64.93866 -34.96864 24277 ft 231 kts 111°
2026-04-28 15:26 64.93585 -34.93154 24279 ft 230 kts 111°
2026-04-28 15:26 64.93301 -34.89434 24276 ft 231 kts 111°
2026-04-28 15:26 64.93017 -34.85716 24283 ft 230 kts 111°
2026-04-28 15:27 64.92732 -34.81999 24279 ft 230 kts 111°
2026-04-28 15:27 64.92450 -34.78326 24278 ft 230 kts 112°
2026-04-28 15:27 64.92163 -34.74613 24281 ft 230 kts 112°
2026-04-28 15:27 64.91876 -34.70902 24285 ft 230 kts 112°
2026-04-28 15:28 64.91587 -34.67192 24281 ft 230 kts 112°
2026-04-28 15:28 64.91298 -34.63477 24283 ft 230 kts 112°
2026-04-28 15:28 64.91007 -34.59763 24284 ft 230 kts 112°
2026-04-28 15:28 64.90716 -34.56060 24286 ft 230 kts 113°
2026-04-28 15:29 64.90424 -34.52359 24288 ft 230 kts 113°
2026-04-28 15:29 64.90132 -34.48660 24287 ft 230 kts 113°
2026-04-28 15:29 64.89838 -34.44955 24289 ft 230 kts 113°
2026-04-28 15:29 64.89544 -34.41261 24291 ft 230 kts 113°
2026-04-28 15:30 64.89253 -34.37618 24292 ft 229 kts 114°
2026-04-28 15:30 64.88957 -34.33927 24294 ft 229 kts 114°
2026-04-28 15:30 64.88661 -34.30237 24292 ft 229 kts 114°
2026-04-28 15:30 64.88363 -34.26542 24295 ft 229 kts 114°
2026-04-28 15:31 64.88065 -34.22858 24296 ft 229 kts 114°
2026-04-28 15:31 64.87766 -34.19175 24297 ft 229 kts 114°
2026-04-28 15:31 64.87466 -34.15494 24298 ft 229 kts 115°
2026-04-28 15:31 64.87165 -34.11815 24298 ft 229 kts 115°
2026-04-28 15:32 64.86864 -34.08139 24298 ft 229 kts 115°
2026-04-28 15:32 64.86562 -34.04465 24300 ft 229 kts 115°
2026-04-28 15:32 64.86258 -34.00785 24301 ft 229 kts 115°
2026-04-28 15:32 64.85955 -33.97117 24302 ft 229 kts 115°
2026-04-28 15:33 64.85651 -33.93459 24301 ft 228 kts 115°
2026-04-28 15:33 64.85345 -33.89788 24309 ft 228 kts 115°
2026-04-28 15:33 64.85039 -33.86128 24309 ft 228 kts 116°
2026-04-28 15:33 64.84733 -33.82469 24304 ft 228 kts 116°
2026-04-28 15:34 64.84425 -33.78814 24309 ft 228 kts 116°
2026-04-28 15:34 64.84120 -33.75202 24308 ft 228 kts 116°
2026-04-28 15:34 64.83812 -33.71552 24309 ft 228 kts 116°
2026-04-28 15:34 64.83501 -33.67896 24311 ft 228 kts 116°
2026-04-28 15:35 64.83191 -33.64252 24311 ft 227 kts 117°
2026-04-28 15:35 64.82567 -33.56962 24318 ft 227 kts 117°
2026-04-28 15:35 64.82255 -33.53325 24314 ft 227 kts 117°
2026-04-28 15:36 64.81942 -33.49691 24320 ft 227 kts 117°
2026-04-28 15:36 64.81628 -33.46061 24315 ft 227 kts 117°
2026-04-28 15:36 64.81317 -33.42475 24324 ft 227 kts 117°
2026-04-28 15:36 64.81002 -33.38853 24325 ft 226 kts 117°
2026-04-28 15:37 64.80685 -33.35232 24324 ft 226 kts 117°
2026-04-28 15:37 64.80368 -33.31605 24327 ft 226 kts 117°
2026-04-28 15:37 64.80051 -33.27998 24324 ft 226 kts 117°
2026-04-28 15:37 64.79732 -33.24377 24326 ft 226 kts 117°
2026-04-28 15:38 64.79414 -33.20767 24324 ft 226 kts 117°
2026-04-28 15:38 64.79093 -33.17150 24329 ft 226 kts 117°
2026-04-28 15:38 64.78773 -33.13544 24331 ft 226 kts 117°
2026-04-28 15:38 64.78453 -33.09949 24332 ft 226 kts 117°
2026-04-28 15:39 64.78130 -33.06341 24333 ft 226 kts 117°
2026-04-28 15:39 64.77808 -33.02742 24333 ft 226 kts 117°
2026-04-28 15:39 64.77484 -32.99146 24334 ft 225 kts 117°
2026-04-28 15:39 64.77160 -32.95554 24337 ft 225 kts 117°
2026-04-28 15:40 64.76840 -32.92009 24335 ft 225 kts 117°
2026-04-28 15:40 64.76514 -32.88417 24338 ft 225 kts 118°
2026-04-28 15:40 64.76183 -32.84779 24339 ft 225 kts 118°
2026-04-28 15:40 64.75856 -32.81190 24339 ft 225 kts 118°
2026-04-28 15:41 64.75532 -32.77651 24340 ft 225 kts 117°
2026-04-28 15:41 64.75203 -32.74067 24341 ft 225 kts 117°
2026-04-28 15:41 64.74869 -32.70436 24341 ft 225 kts 118°
2026-04-28 15:41 64.74543 -32.66900 24344 ft 225 kts 118°
2026-04-28 15:42 64.74211 -32.63319 24344 ft 225 kts 117°
2026-04-28 15:42 64.73879 -32.59732 24344 ft 225 kts 118°
2026-04-28 15:42 64.73546 -32.56154 24346 ft 225 kts 118°
2026-04-28 15:42 64.73211 -32.52569 24346 ft 225 kts 118°
2026-04-28 15:43 64.72876 -32.48993 24347 ft 225 kts 117°
2026-04-28 15:43 64.72542 -32.45426 24351 ft 225 kts 118°
2026-04-28 15:43 64.72205 -32.41843 24347 ft 225 kts 118°
2026-04-28 15:43 64.71867 -32.38270 24353 ft 225 kts 118°
2026-04-28 15:44 64.71529 -32.34698 24354 ft 225 kts 118°
2026-04-28 15:44 64.71190 -32.31127 24355 ft 225 kts 118°
2026-04-28 15:44 64.70850 -32.27555 24358 ft 225 kts 118°
2026-04-28 15:44 64.70508 -32.23966 24359 ft 225 kts 118°
2026-04-28 15:45 64.70166 -32.20400 24355 ft 225 kts 118°
2026-04-28 15:45 64.69824 -32.16829 24359 ft 225 kts 118°
2026-04-28 15:45 64.69480 -32.13257 24361 ft 225 kts 118°
2026-04-28 15:45 64.69135 -32.09686 24362 ft 225 kts 118°
2026-04-28 15:46 64.68790 -32.06116 24363 ft 225 kts 118°
2026-04-28 15:46 64.68443 -32.02542 24362 ft 225 kts 118°
2026-04-28 15:46 64.68097 -31.98979 24361 ft 225 kts 118°
2026-04-28 15:46 64.67753 -31.95459 24364 ft 225 kts 118°
2026-04-28 15:47 64.67405 -31.91901 24367 ft 225 kts 118°
2026-04-28 15:47 64.67056 -31.88346 24367 ft 225 kts 118°
2026-04-28 15:47 64.66707 -31.84794 24370 ft 224 kts 119°
2026-04-28 15:47 64.66357 -31.81244 24371 ft 224 kts 119°
2026-04-28 15:48 64.66006 -31.77697 24373 ft 224 kts 119°
2026-04-28 15:48 64.65655 -31.74153 24373 ft 224 kts 119°
2026-04-28 15:48 64.65301 -31.70596 24373 ft 224 kts 119°
2026-04-28 15:48 64.64949 -31.67059 24376 ft 224 kts 120°
2026-04-28 15:49 64.64594 -31.63515 24376 ft 224 kts 120°
2026-04-28 15:49 64.64240 -31.59983 24376 ft 224 kts 120°
2026-04-28 15:49 64.63886 -31.56453 24377 ft 224 kts 120°
2026-04-28 15:49 64.63534 -31.52964 24381 ft 223 kts 120°
2026-04-28 15:50 64.63178 -31.49439 24380 ft 223 kts 120°
2026-04-28 15:50 64.62822 -31.45919 24383 ft 223 kts 120°
2026-04-28 15:50 64.62464 -31.42393 24382 ft 223 kts 120°
2026-04-28 15:50 64.62106 -31.38878 24386 ft 223 kts 120°
2026-04-28 15:51 64.61748 -31.35366 24386 ft 223 kts 121°
2026-04-28 15:51 64.61389 -31.31858 24388 ft 223 kts 121°
2026-04-28 15:51 64.61028 -31.28343 24390 ft 222 kts 121°
2026-04-28 15:51 64.60667 -31.24839 24393 ft 222 kts 121°
2026-04-28 15:52 64.60306 -31.21337 24391 ft 222 kts 121°
2026-04-28 15:52 64.59945 -31.17838 24395 ft 222 kts 121°
2026-04-28 15:52 64.59582 -31.14336 24396 ft 222 kts 122°
2026-04-28 15:52 64.59218 -31.10836 24399 ft 222 kts 122°
2026-04-28 15:53 64.58855 -31.07354 24399 ft 222 kts 122°
2026-04-28 15:53 64.58490 -31.03859 24401 ft 222 kts 122°
2026-04-28 15:53 64.58126 -31.00382 24401 ft 221 kts 122°
2026-04-28 15:53 64.57761 -30.96902 24403 ft 221 kts 122°
2026-04-28 15:54 64.57395 -30.93425 24406 ft 221 kts 123°
2026-04-28 15:54 64.57027 -30.89941 24406 ft 221 kts 123°
2026-04-28 15:54 64.56665 -30.86517 24408 ft 221 kts 123°
2026-04-28 15:54 64.56297 -30.83047 24408 ft 221 kts 123°
2026-04-28 15:55 64.55928 -30.79573 24411 ft 221 kts 123°
2026-04-28 15:55 64.55559 -30.76109 24408 ft 221 kts 123°
2026-04-28 15:55 64.55190 -30.72657 24414 ft 220 kts 123°
2026-04-28 15:55 64.54820 -30.69195 24413 ft 220 kts 123°
2026-04-28 15:56 64.54449 -30.65743 24416 ft 220 kts 124°
2026-04-28 15:56 64.54078 -30.62295 24418 ft 220 kts 124°
2026-04-28 15:56 64.53707 -30.58852 24419 ft 220 kts 124°
2026-04-28 15:56 64.53334 -30.55405 24424 ft 219 kts 124°
2026-04-28 15:57 64.52961 -30.51968 24419 ft 219 kts 124°
2026-04-28 15:57 64.52588 -30.48535 24424 ft 219 kts 124°
2026-04-28 15:57 64.52214 -30.45099 24428 ft 219 kts 124°
2026-04-28 15:57 64.51845 -30.41720 24429 ft 219 kts 125°
2026-04-28 15:58 64.51471 -30.38300 24427 ft 218 kts 125°
2026-04-28 15:58 64.51096 -30.34885 24430 ft 218 kts 125°
2026-04-28 15:58 64.50720 -30.31466 24432 ft 218 kts 125°
2026-04-28 15:58 64.50344 -30.28050 24438 ft 218 kts 126°
2026-04-28 15:59 64.49966 -30.24637 24436 ft 218 kts 126°
2026-04-28 15:59 64.49716 -30.22380 24438 ft 218 kts 126°
2026-04-28 15:59 64.49213 -30.17838 24440 ft 217 kts 126°
2026-04-28 15:59 64.48835 -30.14444 24441 ft 217 kts 126°
2026-04-28 16:00 64.48457 -30.11055 24446 ft 217 kts 126°
2026-04-28 16:00 64.48079 -30.07670 24448 ft 217 kts 127°
2026-04-28 16:00 64.47827 -30.05427 24449 ft 217 kts 127°
2026-04-28 16:00 64.47320 -30.00911 24449 ft 216 kts 127°
2026-04-28 16:01 64.46941 -29.97538 24452 ft 216 kts 127°
2026-04-28 16:01 64.46561 -29.94169 24446 ft 216 kts 127°
2026-04-28 16:01 64.46180 -29.90807 24458 ft 216 kts 127°
2026-04-28 16:01 64.45804 -29.87486 24464 ft 215 kts 127°
2026-04-28 16:02 64.45450 -29.84183 23379 ft 207 kts 104°
2026-04-28 16:02 64.45072 -29.80956 23498 ft 208 kts 107°
2026-04-28 16:02 64.44686 -29.77719 23620 ft 209 kts 105°
2026-04-28 16:02 64.44315 -29.74459 23744 ft 209 kts 105°
2026-04-28 16:03 64.43945 -29.71204 23868 ft 209 kts 105°
2026-04-28 16:03 64.43572 -29.67951 23992 ft 209 kts 105°
2026-04-28 16:03 64.43198 -29.64701 24117 ft 209 kts 105°
2026-04-28 16:03 64.42822 -29.61449 24241 ft 209 kts 105°
2026-04-28 16:04 64.42447 -29.58202 24365 ft 208 kts 105°
2026-04-28 16:04 64.42072 -29.54961 24493 ft 208 kts 105°
2026-04-28 16:04 64.41697 -29.51734 24614 ft 207 kts 105°
2026-04-28 16:04 64.41449 -29.49605 24695 ft 207 kts 105°
2026-04-28 16:05 64.40951 -29.45335 24860 ft 207 kts 105°
2026-04-28 16:05 64.40576 -29.42128 24981 ft 207 kts 105°
2026-04-28 16:05 64.40196 -29.38888 24994 ft 211 kts 106°
2026-04-28 16:05 64.39808 -29.35582 24997 ft 215 kts 105°
2026-04-28 16:06 64.39414 -29.32230 25006 ft 217 kts 106°
2026-04-28 16:06 64.39015 -29.28849 25002 ft 219 kts 106°
2026-04-28 16:06 64.38614 -29.25447 25006 ft 220 kts 106°
2026-04-28 16:06 64.38209 -29.22030 25009 ft 221 kts 106°
2026-04-28 16:07 64.37801 -29.18597 25009 ft 221 kts 106°
2026-04-28 16:07 64.37393 -29.15165 25009 ft 222 kts 106°
2026-04-28 16:07 64.36572 -29.08291 25008 ft 222 kts 106°
2026-04-28 16:08 64.36165 -29.04889 25006 ft 222 kts 106°
2026-04-28 16:08 64.35747 -29.01410 25008 ft 222 kts 106°
2026-04-28 16:08 64.35333 -28.97970 25005 ft 222 kts 106°
2026-04-28 16:09 64.34507 -28.91128 25010 ft 223 kts 106°
2026-04-28 16:09 64.34225 -28.88802 25005 ft 223 kts 106°
2026-04-28 16:09 64.33672 -28.84243 25010 ft 223 kts 106°
2026-04-28 16:10 64.32836 -28.77376 25012 ft 223 kts 106°
2026-04-28 16:10 64.32552 -28.75053 25008 ft 223 kts 106°
2026-04-28 16:10 64.31710 -28.68185 25012 ft 223 kts 106°
2026-04-28 16:11 64.30865 -28.61319 25009 ft 223 kts 106°
2026-04-28 16:11 64.30017 -28.54458 25007 ft 223 kts 106°
2026-04-28 16:12 64.29166 -28.47600 25009 ft 223 kts 107°
2026-04-28 16:12 64.28743 -28.44211 25012 ft 223 kts 107°
2026-04-28 16:13 64.27887 -28.37359 25006 ft 223 kts 107°
2026-04-28 16:13 64.27457 -28.33935 25005 ft 223 kts 107°
2026-04-28 16:13 64.26597 -28.27091 25012 ft 223 kts 107°
2026-04-28 16:14 64.25731 -28.20240 25006 ft 223 kts 107°
2026-04-28 16:14 64.24863 -28.13402 25007 ft 223 kts 107°
2026-04-28 16:15 64.23991 -28.06559 25012 ft 223 kts 107°
2026-04-28 16:15 64.23555 -28.03143 25006 ft 223 kts 107°
2026-04-28 16:15 64.23117 -27.99729 25012 ft 223 kts 107°
2026-04-28 16:16 64.22240 -27.92902 25010 ft 223 kts 107°
2026-04-28 16:16 64.21799 -27.89483 25009 ft 223 kts 107°
2026-04-28 16:17 64.20917 -27.82665 25008 ft 223 kts 107°
2026-04-28 16:17 64.20474 -27.79257 25005 ft 223 kts 107°
2026-04-28 16:17 64.20031 -27.75849 25012 ft 223 kts 107°
2026-04-28 16:17 64.19588 -27.72442 25012 ft 223 kts 107°
2026-04-28 16:18 64.19142 -27.69037 25012 ft 223 kts 107°
2026-04-28 16:18 64.18696 -27.65625 25012 ft 223 kts 107°
2026-04-28 16:18 64.18256 -27.62266 25008 ft 223 kts 107°
2026-04-28 16:18 64.17808 -27.58864 25006 ft 223 kts 107°
2026-04-28 16:19 64.17359 -27.55447 25008 ft 223 kts 107°
2026-04-28 16:19 64.16909 -27.52039 25012 ft 223 kts 107°
2026-04-28 16:19 64.16460 -27.48647 25005 ft 223 kts 107°
2026-04-28 16:19 64.16009 -27.45241 25010 ft 223 kts 107°
2026-04-28 16:20 64.15557 -27.41836 25012 ft 223 kts 107°
2026-04-28 16:20 64.15104 -27.38440 25005 ft 223 kts 108°
2026-04-28 16:20 64.14652 -27.35044 25009 ft 223 kts 108°
2026-04-28 16:20 64.14203 -27.31688 25012 ft 223 kts 108°
2026-04-28 16:21 64.13744 -27.28257 25012 ft 223 kts 108°
2026-04-28 16:21 64.13295 -27.24910 25012 ft 223 kts 108°
2026-04-28 16:21 64.12839 -27.21519 25012 ft 223 kts 108°
2026-04-28 16:21 64.12385 -27.18126 25007 ft 223 kts 107°
2026-04-28 16:22 64.12220 -27.14609 25010 ft 223 kts 89°
2026-04-28 16:22 64.12240 -27.11054 25008 ft 223 kts 90°
2026-04-28 16:22 64.12239 -27.07498 25009 ft 223 kts 90°
2026-04-28 16:22 64.12239 -27.03941 25010 ft 223 kts 90°
2026-04-28 16:23 64.12243 -27.00384 25010 ft 223 kts 90°
2026-04-28 16:23 64.12245 -26.96819 25010 ft 223 kts 90°
2026-04-28 16:23 64.12247 -26.93253 25010 ft 224 kts 90°
2026-04-28 16:23 64.12247 -26.89695 25010 ft 224 kts 90°
2026-04-28 16:24 64.12246 -26.86136 25008 ft 224 kts 90°
2026-04-28 16:24 64.12245 -26.82616 25008 ft 224 kts 90°
2026-04-28 16:24 64.12242 -26.79058 25008 ft 224 kts 90°
2026-04-28 16:24 64.12239 -26.75499 25008 ft 224 kts 90°
2026-04-28 16:25 64.12235 -26.71940 25008 ft 224 kts 90°
2026-04-28 16:25 64.12230 -26.68373 25008 ft 224 kts 90°
2026-04-28 16:25 64.12224 -26.64806 25009 ft 224 kts 91°
2026-04-28 16:25 64.12217 -26.61247 25009 ft 224 kts 91°
2026-04-28 16:26 64.12209 -26.57687 25009 ft 224 kts 91°
2026-04-28 16:26 64.12201 -26.54128 25009 ft 224 kts 91°
2026-04-28 16:26 64.12192 -26.50569 25009 ft 224 kts 91°
2026-04-28 16:26 64.12181 -26.47009 25009 ft 224 kts 91°
2026-04-28 16:27 64.12170 -26.43450 25009 ft 224 kts 91°
2026-04-28 16:27 64.12158 -26.39890 25009 ft 224 kts 91°
2026-04-28 16:27 64.12132 -26.32756 25009 ft 224 kts 91°
2026-04-28 16:28 64.12117 -26.29204 25009 ft 224 kts 91°
2026-04-28 16:28 64.12102 -26.25645 25009 ft 224 kts 91°
2026-04-28 16:28 64.12086 -26.22085 25009 ft 224 kts 91°
2026-04-28 16:28 64.12068 -26.18517 25009 ft 224 kts 91°
2026-04-28 16:29 64.12032 -26.11441 25009 ft 224 kts 91°
2026-04-28 16:29 64.11992 -26.04329 25009 ft 224 kts 91°
2026-04-28 16:30 64.11970 -26.00766 25009 ft 224 kts 91°
2026-04-28 16:30 64.11948 -25.97208 25009 ft 224 kts 91°
2026-04-28 16:30 64.11925 -25.93647 25003 ft 224 kts 91°
2026-04-28 16:30 64.11901 -25.90096 25009 ft 224 kts 91°
2026-04-28 16:31 64.11876 -25.86546 25009 ft 224 kts 91°
2026-04-28 16:31 64.11850 -25.82989 25009 ft 224 kts 91°
2026-04-28 16:31 64.11823 -25.79425 25009 ft 224 kts 91°
2026-04-28 16:31 64.11796 -25.75875 25009 ft 224 kts 91°
2026-04-28 16:32 64.11767 -25.72317 25009 ft 224 kts 91°
2026-04-28 16:32 64.11708 -25.65200 25009 ft 224 kts 91°
2026-04-28 16:32 64.11677 -25.61634 25009 ft 224 kts 91°
2026-04-28 16:33 64.11645 -25.58076 25009 ft 224 kts 91°
2026-04-28 16:33 64.11623 -25.55717 25009 ft 224 kts 91°
2026-04-28 16:33 64.11579 -25.51002 25009 ft 224 kts 92°
2026-04-28 16:33 64.11545 -25.47436 25009 ft 224 kts 92°
2026-04-28 16:34 64.11509 -25.43870 25009 ft 224 kts 92°
2026-04-28 16:34 64.11473 -25.40313 25009 ft 224 kts 92°
2026-04-28 16:34 64.11436 -25.36714 24822 ft 232 kts 92°
2026-04-28 16:34 64.11394 -25.32955 24530 ft 240 kts 92°
2026-04-28 16:35 64.11353 -25.29097 24240 ft 244 kts 92°
2026-04-28 16:35 64.11307 -25.25259 23939 ft 239 kts 92°
2026-04-28 16:35 64.11265 -25.21510 23619 ft 237 kts 92°
2026-04-28 16:35 64.11223 -25.17734 23294 ft 236 kts 92°
2026-04-28 16:36 64.11178 -25.13978 22969 ft 236 kts 92°
2026-04-28 16:36 64.11132 -25.10228 22645 ft 236 kts 92°
2026-04-28 16:36 64.11085 -25.06479 22294 ft 236 kts 92°
2026-04-28 16:36 64.11037 -25.02710 21920 ft 236 kts 92°
2026-04-28 16:37 64.10987 -24.98952 21546 ft 235 kts 92°
2026-04-28 16:37 64.10938 -24.95236 21171 ft 233 kts 92°
2026-04-28 16:37 64.10889 -24.91592 20801 ft 232 kts 92°
2026-04-28 16:38 64.10928 -24.84243 20039 ft 230 kts 85°
2026-04-28 16:38 64.11059 -24.80595 19640 ft 230 kts 86°
2026-04-28 16:38 64.11180 -24.76942 19241 ft 229 kts 86°
2026-04-28 16:38 64.11295 -24.73322 18843 ft 228 kts 86°
2026-04-28 16:39 64.11411 -24.69701 18443 ft 227 kts 86°
2026-04-28 16:39 64.11527 -24.66110 18044 ft 226 kts 86°
2026-04-28 16:39 64.11639 -24.62589 17645 ft 223 kts 86°
2026-04-28 16:39 64.11751 -24.59054 17249 ft 222 kts 86°
2026-04-28 16:40 64.11861 -24.55540 16849 ft 221 kts 86°
2026-04-28 16:40 64.11969 -24.52044 16447 ft 220 kts 86°
2026-04-28 16:40 64.12077 -24.48559 16049 ft 218 kts 86°
2026-04-28 16:40 64.12183 -24.45092 15648 ft 217 kts 86°
2026-04-28 16:41 64.12287 -24.41655 15249 ft 216 kts 86°
2026-04-28 16:41 64.12391 -24.38245 14850 ft 214 kts 86°
2026-04-28 16:41 64.12490 -24.34868 14450 ft 211 kts 86°
2026-04-28 16:41 64.12590 -24.31527 14049 ft 209 kts 86°
2026-04-28 16:42 64.12688 -24.28222 13648 ft 207 kts 86°
2026-04-28 16:42 64.12783 -24.24939 13248 ft 206 kts 86°
2026-04-28 16:42 64.12877 -24.21710 12853 ft 205 kts 86°
2026-04-28 16:42 64.12971 -24.18461 12453 ft 204 kts 86°
2026-04-28 16:43 64.13063 -24.15227 12054 ft 203 kts 86°
2026-04-28 16:43 64.13154 -24.12008 11655 ft 202 kts 87°
2026-04-28 16:43 64.13243 -24.08808 11254 ft 200 kts 87°
2026-04-28 16:43 64.13333 -24.05627 10855 ft 199 kts 87°
2026-04-28 16:44 64.13419 -24.02477 10454 ft 197 kts 87°
2026-04-28 16:44 64.13505 -23.99364 10053 ft 194 kts 87°
2026-04-28 16:44 64.13588 -23.96324 9657 ft 193 kts 87°
2026-04-28 16:44 64.13670 -23.93274 9257 ft 191 kts 87°
2026-04-28 16:45 64.13751 -23.90251 8950 ft 186 kts 87°
2026-04-28 16:45 64.13830 -23.87347 8770 ft 180 kts 87°
2026-04-28 16:45 64.13905 -23.84507 8590 ft 177 kts 87°
2026-04-28 16:45 64.13977 -23.81691 8412 ft 177 kts 87°
2026-04-28 16:46 64.14051 -23.78885 8234 ft 176 kts 87°
2026-04-28 16:46 64.14122 -23.76085 8059 ft 176 kts 87°
2026-04-28 16:46 64.14194 -23.73283 7902 ft 176 kts 87°
2026-04-28 16:46 64.14265 -23.70496 7761 ft 175 kts 87°
2026-04-28 16:47 64.14334 -23.67740 7622 ft 175 kts 87°
2026-04-28 16:47 64.14405 -23.64942 7482 ft 176 kts 87°
2026-04-28 16:47 64.14474 -23.62136 7341 ft 176 kts 87°
2026-04-28 16:47 64.14544 -23.59331 7199 ft 176 kts 87°
2026-04-28 16:48 64.14612 -23.56519 7058 ft 176 kts 87°
2026-04-28 16:48 64.14680 -23.53715 6917 ft 176 kts 87°
2026-04-28 16:48 64.14747 -23.50946 6778 ft 176 kts 87°
2026-04-28 16:48 64.14813 -23.48149 6638 ft 176 kts 87°
2026-04-28 16:49 64.14880 -23.45347 6497 ft 176 kts 87°
2026-04-28 16:49 64.14945 -23.42558 6357 ft 175 kts 88°
2026-04-28 16:49 64.15009 -23.39766 6217 ft 175 kts 88°
2026-04-28 16:49 64.15074 -23.36983 6076 ft 175 kts 88°
2026-04-28 16:50 64.15137 -23.34209 5938 ft 174 kts 88°
2026-04-28 16:50 64.15201 -23.31440 5799 ft 174 kts 88°
2026-04-28 16:50 64.15263 -23.28681 5661 ft 173 kts 88°
2026-04-28 16:50 64.15323 -23.25954 5524 ft 173 kts 88°
2026-04-28 16:51 64.15385 -23.23202 5387 ft 173 kts 88°
2026-04-28 16:51 64.15445 -23.20448 5247 ft 172 kts 88°
2026-04-28 16:51 64.15504 -23.17713 5111 ft 172 kts 88°
2026-04-28 16:51 64.15563 -23.14969 4974 ft 172 kts 88°
2026-04-28 16:52 64.15622 -23.12233 4836 ft 172 kts 88°
2026-04-28 16:52 64.15679 -23.09501 4698 ft 171 kts 88°
2026-04-28 16:52 64.15737 -23.06773 4563 ft 171 kts 88°
2026-04-28 16:52 64.15794 -23.04054 4425 ft 171 kts 88°
2026-04-28 16:53 64.15850 -23.01338 4290 ft 170 kts 88°
2026-04-28 16:53 64.15904 -22.98628 4153 ft 170 kts 88°
2026-04-28 16:53 64.15959 -22.95923 4018 ft 170 kts 88°
2026-04-28 16:53 64.16012 -22.93270 3883 ft 159 kts 88°
2026-04-28 16:54 64.16058 -22.90885 3768 ft 146 kts 88°
2026-04-28 16:54 64.16105 -22.88635 3645 ft 138 kts 88°
2026-04-28 16:54 64.16148 -22.86485 3541 ft 132 kts 88°
2026-04-28 16:54 64.16174 -22.85105 3472 ft 129 kts 88°
2026-04-28 16:55 64.16227 -22.82385 3342 ft 126 kts 88°
2026-04-28 16:55 64.16264 -22.80390 3244 ft 124 kts 90°
2026-04-28 16:55 64.16008 -22.78578 3173 ft 120 kts 128°
2026-04-28 16:55 64.15394 -22.77418 3162 ft 112 kts 156°
2026-04-28 16:56 64.14638 -22.77098 3163 ft 111 kts 186°
2026-04-28 16:56 64.13870 -22.77147 3149 ft 113 kts 164°
2026-04-28 16:56 64.13149 -22.76421 3150 ft 113 kts 155°
2026-04-28 16:56 64.12439 -22.75633 3153 ft 113 kts 158°
2026-04-28 16:57 64.11704 -22.74844 3041 ft 122 kts 154°
2026-04-28 16:57 64.11186 -22.74256 2937 ft 128 kts 156°
2026-04-28 16:57 64.10382 -22.73292 2780 ft 133 kts 153°
2026-04-28 16:57 64.09589 -22.72150 2610 ft 137 kts 137°
2026-04-28 16:58 64.09048 -22.70338 2373 ft 139 kts 118°
2026-04-28 16:58 64.08664 -22.68331 2141 ft 139 kts 109°
2026-04-28 16:58 64.08409 -22.66201 1926 ft 137 kts 104°
2026-04-28 16:58 64.08199 -22.64090 1743 ft 133 kts 109°
2026-04-28 16:59 64.07842 -22.62329 1680 ft 116 kts 126°
2026-04-28 16:59 64.07277 -22.61082 1540 ft 110 kts 150°
2026-04-28 16:59 64.06644 -22.60481 1440 ft 93 kts 168°
2026-04-28 16:59 64.06014 -22.60336 1374 ft 88 kts 180°
2026-04-28 17:00 64.05420 -22.60323 1330 ft 88 kts 183°
2026-04-28 17:00 64.04820 -22.60454 1302 ft 84 kts 187°
2026-04-28 17:00 64.04219 -22.60553 1231 ft 87 kts 183°
2026-04-28 17:00 64.03610 -22.60552 1151 ft 89 kts 179°
2026-04-28 17:01 64.03003 -22.60542 1082 ft 87 kts 181°
2026-04-28 17:01 64.02399 -22.60520 952 ft 87 kts 179°
2026-04-28 17:01 64.01795 -22.60496 840 ft 88 kts 181°
2026-04-28 17:01 64.01189 -22.60515 749 ft 89 kts 183°
2026-04-28 17:02 64.00572 -22.60548 623 ft 88 kts 182°
2026-04-28 17:02 63.99963 -22.60554 455 ft 87 kts 181°
2026-04-28 17:02 63.99364 -22.60544 317 ft 86 kts 181°
2026-04-28 17:02 63.98768 -22.60536 199 ft 83 kts 181°
2026-04-28 17:03 63.97952 -22.60541 165 ft 41 kts 180°
2026-04-28 17:03 63.97684 -22.60540 167 ft 37 kts 179°
2026-04-28 17:03 63.97442 -22.60543 167 ft 24 kts 180°
2026-04-28 17:04 63.97339 -22.60135 165 ft 17 kts 113°
2026-04-28 17:04 63.97304 -22.59943 164 ft 0 kts 113°
2026-04-28 17:05 63.97304 -22.59942 164 ft 1 kts 113°
2026-04-28 17:05 63.97297 -22.59886 164 ft 6 kts 52°
2026-04-28 17:05 63.97359 -22.59839 163 ft 12 kts 26°
2026-04-28 17:06 63.97374 -22.59823 163 ft 0 kts 23°
2026-04-28 17:06 63.97439 -22.59806 163 ft 10 kts 358°
2026-04-28 17:07 63.97509 -22.59813 164 ft 8 kts 359°
2026-04-28 17:07 63.97532 -22.59759 166 ft 4 kts 88°
2026-04-28 17:07 63.97533 -22.59709 167 ft 2 kts 87°
2026-04-28 17:07 63.97534 -22.59667 168 ft 6 kts 88°
2026-04-28 17:08 63.97569 -22.59626 168 ft 5 kts 356°
2026-04-28 17:08 63.97581 -22.59591 168 ft 4 kts 114°
2026-04-28 17:08 63.97570 -22.59582 168 ft 0 kts 232°